Location: Unspecified
(48.2082°N, 0.0000°E)
Time: 10:34:59
(UTC+00:00)

Tiros 1 despin weight - Pass Details

Date: 29 June 2019
Orbit: 594 x 642 km, 48.2° (Epoch: 16 July)

Event Time Altitude Azimuth Distance (km) Brightness Sun altitude
Rises 20:51:31 0° 235° (SW) 2,876 ? -6.7°
Reaches altitude 10° 20:53:53 10° 230° (SW) 1,965 ? -6.9°
Maximum altitude 20:58:14 49° 156° (SSE) 786 ? -7.4°
Drops below altitude 10° 21:02:32 10° 81° (E) 1,945 ? -7.9°
Sets 21:04:52 0° 76° (ENE) 2,844 ? -8.2°
